N1DWM Weather Reports


Display with metric or nautical units.
time (UTC)temp
F
wind
direction
speed
MPH
gust
MPH
rain 1hr
in
rain 24hr
in
rain mn
in
humidity
%
barometer
mb
20260506231525 55 183 1.0 8.0 0.00 0.18 0.18 95 1008.0
20260506230029 55 200 1.0 8.0 0.00 0.18 0.18 94 1007.9
20260506224511 55 212 3.0 10.0 0.00 0.18 0.18 94 1007.8
20260506223026 55 267 3.0 7.0 0.01 0.18 0.18 94 1007.7
20260506221520 55 242 0.0 12.0 0.01 0.18 0.18 94 1007.6
20260506220031 56 218 10.0 15.0 0.04 0.18 0.18 94 1007.7
20260506214525 56 209 2.0 14.0 0.07 0.18 0.18 93 1007.7
20260506213012 56 226 1.0 14.0 0.07 0.17 0.17 93 1007.6
20260506211523 56 243 1.0 16.0 0.08 0.17 0.17 93 1007.8
20260506210032 56 213 0.0 18.0 0.05 0.14 0.14 93 1008.0
20260506204541 57 200 1.0 12.0 0.02 0.11 0.11 93 1008.2
20260506203029 57 202 2.0 13.0 0.01 0.10 0.10 92 1008.1
20260506201514 57 234 7.0 14.0 0.00 0.09 0.09 92 1008.4
20260506200025 57 194 4.0 17.0 0.01 0.09 0.09 92 1008.2
20260506194507 57 227 8.0 17.0 0.03 0.09 0.09 92 1008.4
20260506193005 57 212 3.0 16.0 0.06 0.09 0.09 92 1008.6
20260506191513 57 238 7.0 20.0 0.07 0.09 0.09 92 1008.8
20260506190015 57 235 6.0 20.0 0.07 0.08 0.08 91 1008.9
20260506183006 57 208 8.0 15.0 0.03 0.03 0.03 90 1009.0
20260506181519 58 224 3.0 13.0 0.02 0.02 0.02 89 1009.4
20260506180030 58 249 11.0 17.0 0.01 0.01 0.01 87 1010.0
20260506174520 59 284 8.0 20.0 0.00 0.00 0.00 83 1010.1
20260506173023 61 253 2.0 13.0 0.00 0.00 0.00 79 1010.4
20260506171510 61 231 5.0 21.0 0.00 0.00 0.00 78 1010.3
20260506170014 62 182 11.0 20.0 0.00 0.00 0.00 77 1010.6
20260506164520 62 238 6.0 15.0 0.00 0.00 0.00 76 1010.6
20260506163021 63 236 8.0 24.0 0.00 0.00 0.00 74 1010.5
20260506161534 64 202 5.0 24.0 0.00 0.00 0.00 72 1010.7
20260506160041 64 234 5.0 21.0 0.00 0.00 0.00 73 1011.0
20260506154513 63 199 7.0 22.0 0.00 0.00 0.00 73 1011.0
20260506153020 64 237 10.0 18.0 0.00 0.00 0.00 72 1010.9
20260506151533 65 226 10.0 23.0 0.00 0.00 0.00 69 1010.9
20260506150022 66 229 8.0 20.0 0.00 0.00 0.00 69 1011.0
20260506144513 66 217 8.0 23.0 0.00 0.00 0.00 70 1011.1
20260506143036 65 232 11.0 22.0 0.00 0.00 0.00 71 1011.3
20260506141505 65 247 11.0 21.0 0.00 0.00 0.00 71 1011.3
20260506140010 65 240 8.0 19.0 0.00 0.00 0.00 72 1011.3
20260506134511 63 194 5.0 13.0 0.00 0.00 0.00 74 1011.0
20260506133021 63 274 4.0 17.0 0.00 0.00 0.00 73 1011.0
20260506131528 63 223 6.0 14.0 0.00 0.00 0.00 73 1011.0
20260506124512 63 197 5.0 14.0 0.00 0.00 0.00 75 1011.6
20260506123017 62 223 1.0 16.0 0.00 0.00 0.00 76 1011.7
20260506120026 60 242 4.0 14.0 0.00 0.00 0.00 79 1011.7
20260506114508 60 207 2.0 9.0 0.00 0.00 0.00 82 1011.8
20260506113014 58 215 0.0 10.0 0.00 0.00 0.00 85 1011.8
20260506111518 57 209 3.0 12.0 0.00 0.00 0.00 86 1011.7
20260506110035 57 175 2.0 10.0 0.00 0.00 0.00 88 1011.9
20260506103016 56 221 2.0 9.0 0.00 0.00 0.00 89 1011.8
20260506101531 56 210 3.0 12.0 0.00 0.00 0.00 89 1011.7
20260506100020 55 211 3.0 9.0 0.00 0.00 0.00 88 1011.5
20260506094522 55 190 2.0 10.0 0.00 0.00 0.00 88 1011.5
20260506093008 55 222 1.0 12.0 0.00 0.00 0.00 87 1011.7
20260506090021 56 207 0.0 13.0 0.00 0.00 0.00 86 1011.9
20260506084528 56 231 3.0 12.0 0.00 0.00 0.00 86 1011.8
20260506083024 56 235 3.0 13.0 0.00 0.00 0.00 85 1011.9
20260506081510 57 219 9.0 17.0 0.00 0.00 0.00 85 1011.9
20260506073025 57 238 3.0 21.0 0.00 0.00 0.00 84 1012.0
20260506071527 57 223 3.0 11.0 0.00 0.00 0.00 83 1012.1
20260506061528 57 233 3.0 14.0 0.00 0.00 0.00 81 1011.9
20260506044521 58 215 4.0 22.0 0.00 0.00 0.00 79 1012.4
20260506041508 58 250 7.0 16.0 0.00 0.00 0.00 78 1012.6
20260506040009 59 207 8.0 18.0 0.00 0.00 0.00 77 1012.7
20260506034512 59 236 5.0 14.0 0.00 0.00 0.00 76 1012.7
20260506033021 59 248 7.0 15.0 0.00 0.00 0.00 75 1012.6
20260506031512 60 242 8.0 17.0 0.00 0.00 0.00 74 1012.5
20260506030008 60 237 5.0 18.0 0.00 0.00 0.00 73 1012.4
20260506024513 60 231 13.0 24.0 0.00 0.00 0.00 72 1012.3
20260506023018 60 248 8.0 16.0 0.00 0.00 0.00 72 1012.4
20260506021521 60 218 10.0 18.0 0.00 0.00 0.00 71 1012.2
20260506020004 60 250 11.0 24.0 0.00 0.00 0.00 71 1012.1
20260506014517 60 241 10.0 25.0 0.00 0.00 0.00 71 1011.9
20260506013025 60 205 9.0 25.0 0.00 0.00 0.00 71 1011.8
20260506011517 60 216 9.0 21.0 0.00 0.00 0.00 70 1011.6
20260506010027 61 246 10.0 26.0 0.00 0.00 0.00 69 1011.4
20260506004517 60 217 10.0 23.0 0.00 0.00 0.00 70 1011.3
20260506003012 60 226 5.0 16.0 0.00 0.00 0.00 69 1011.2
20260506001518 60 245 5.0 16.0 0.00 0.00 0.00 69 1011.0
20260506000023 60 223 1.0 17.0 0.00 0.00 0.00 69 1010.8
20260505234528 60 248 9.0 15.0 0.00 0.00 0.00 69 1010.6
20260505233010 61 171 1.0 15.0 0.00 0.00 0.00 69 1010.2